KI4NG Weather Reports


time (UTC)temp
C
wind
direction
speed
KPH
gust
KPH
rain 1hr
cm
rain 24hr
cm
rain mn
cm
humidity
%
barometer
mb
20260906035836 22 167 1.6 3.2 0.00 0.03 0.03 95 1015.4
20260906035331 22 165 1.6 3.2 0.00 0.03 0.03 95 1015.7
20260906034826 22 156 3.2 3.2 0.00 0.03 0.03 95 1015.7
20260906034321 23 153 3.2 3.2 0.00 0.03 0.03 94 1015.7
20260906033817 23 159 1.6 3.2 0.00 0.03 0.03 93 1015.5
20260906033316 23 153 1.6 1.6 0.00 0.03 0.03 91 1015.2
20260906032812 23 140 1.6 1.6 0.00 0.03 0.03 93 1015.3
20260906032308 22 125 1.6 3.2 0.00 0.03 0.03 93 1015.3
20260906031803 22 143 3.2 3.2 0.00 0.03 0.03 94 1015.2
20260906031259 23 152 3.2 3.2 0.00 0.03 0.03 90 1015.2
20260906030758 24 147 0.0 0.0 0.00 0.03 0.03 85 1015.1
20260906030254 25 147 0.0 0.0 0.00 0.03 0.03 83 1015.2
20260906025753 24 135 0.0 0.0 0.00 0.03 0.03 84 1015.3
20260906025248 24 135 0.0 0.0 0.00 0.03 0.03 85 1015.5
20260906024747 24 132 0.0 0.0 0.00 0.03 0.03 84 1015.6
20260906024245 24 143 0.0 0.0 0.00 0.03 0.03 83 1015.5
20260906023741 24 143 0.0 0.0 0.00 0.03 0.03 83 1015.4
20260906023237 24 143 0.0 0.0 0.00 0.03 0.03 83 1015.4
20260906022732 24 143 0.0 0.0 0.00 0.03 0.03 84 1015.1
20260906022227 24 143 0.0 0.0 0.00 0.03 0.03 84 1015.3
20260906021723 25 143 0.0 0.0 0.00 0.03 0.03 84 1015.1
20260906021222 25 134 0.0 0.0 0.00 0.03 0.03 85 1014.8
20260906020717 24 134 0.0 0.0 0.00 0.03 0.03 85 1015.2
20260906020212 25 134 0.0 0.0 0.00 0.03 0.03 84 1014.9
20260906015706 24 126 0.0 1.6 0.00 0.03 0.03 84 1014.8
20260906015205 24 144 0.0 0.0 0.00 0.03 0.03 84 1014.8
20260906014705 24 144 0.0 0.0 0.00 0.03 0.03 84 1014.8
20260906014201 24 138 0.0 0.0 0.00 0.03 0.03 84 1015.0
20260906013657 24 138 0.0 0.0 0.00 0.03 0.03 83 1014.9
20260906013151 24 139 0.0 0.0 0.00 0.03 0.03 86 1014.9
20260906012651 24 138 0.0 0.0 0.00 0.03 0.03 86 1015.0
20260906012145 25 139 0.0 0.0 0.00 0.03 0.03 86 1014.5
20260906011642 25 167 0.0 0.0 0.00 0.03 0.03 84 1014.6
20260906011136 25 112 3.2 3.2 0.00 0.03 0.03 84 1014.7
20260906010626 25 135 0.0 0.0 0.00 0.03 0.03 83 1014.6
20260906010123 25 114 0.0 0.0 0.00 0.03 0.03 83 1014.5
20260906005622 25 152 0.0 0.0 0.00 0.03 0.03 87 1014.5
20260906005121 25 150 0.0 0.0 0.00 0.03 0.03 87 1014.7
20260906004620 25 133 0.0 0.0 0.00 0.03 0.03 88 1014.6
20260906004115 25 148 0.0 0.0 0.00 0.03 0.03 91 1014.6
20260906003610 25 141 0.0 0.0 0.00 0.03 0.03 90 1014.6
20260906003106 25 136 0.0 0.0 0.00 0.03 0.03 89 1014.7
20260906002601 26 137 0.0 0.0 0.00 0.03 0.03 88 1015.0
20260906002056 27 133 0.0 0.0 0.00 0.03 0.03 83 1014.9
20260906001551 27 52 4.8 4.8 0.00 0.03 0.03 77 1014.6
20260906001045 27 29 4.8 4.8 0.00 0.03 0.03 77 1014.6
20260906000541 28 169 0.0 0.0 0.00 0.03 0.03 77 1014.7
20260906000036 28 128 0.0 0.0 0.00 0.03 0.03 76 1014.5
20260905235530 28 128 0.0 0.0 0.00 0.03 0.03 75 1014.7
20260905235025 28 128 0.0 0.0 0.00 0.03 0.03 74 1014.8
20260905234520 28 128 0.0 0.0 0.00 0.03 0.03 73 1014.8
20260905234015 29 128 0.0 0.0 0.00 0.03 0.03 73 1014.7
20260905233510 30 161 0.0 0.0 0.00 0.03 0.03 71 1014.8
20260905233009 30 115 3.2 3.2 0.00 0.03 0.03 69 1014.6
20260905232505 30 133 0.0 1.6 0.00 0.03 0.03 69 1014.7
20260905232001 30 115 1.6 1.6 0.00 0.03 0.03 67 1014.8
20260905231456 30 199 1.6 1.6 0.00 0.03 0.03 69 1014.7
20260905230952 30 136 0.0 1.6 0.00 0.03 0.03 68 1014.8
20260905230450 30 146 1.6 1.6 0.00 0.03 0.03 68 1014.8
20260905225949 30 146 1.6 1.6 0.00 0.03 0.03 66 1014.7
20260905225444 31 136 0.0 0.0 0.00 0.03 0.03 66 1014.7
20260905224939 31 130 3.2 3.2 0.00 0.03 0.03 64 1014.7
20260905224435 31 113 1.6 1.6 0.00 0.03 0.03 63 1014.6
20260905223933 31 283 1.6 4.8 0.00 0.03 0.03 63 1014.6
20260905223432 32 127 1.6 3.2 0.00 0.03 0.03 62 1014.5
20260905222927 32 119 1.6 1.6 0.00 0.03 0.03 61 1014.5
20260905222426 32 145 0.0 1.6 0.00 0.03 0.03 61 1014.7
20260905221922 32 20 3.2 4.8 0.00 0.03 0.03 61 1014.4
20260905221419 32 129 1.6 1.6 0.00 0.03 0.03 61 1014.6
20260905220915 33 20 3.2 4.8 0.00 0.03 0.03 60 1014.6
20260905220410 33 187 1.6 1.6 0.00 0.03 0.03 60 1014.6
20260905215909 32 327 3.2 3.2 0.00 0.03 0.03 60 1014.5
20260905215405 32 45 4.8 4.8 0.00 0.03 0.03 60 1014.6
20260905214901 32 157 1.6 3.2 0.00 0.03 0.03 60 1014.3
20260905214357 32 185 4.8 4.8 0.00 0.03 0.03 60 1014.6
20260905213851 32 32 8.0 9.7 0.00 0.03 0.03 59 1014.6
20260905213348 33 292 4.8 4.8 0.00 0.03 0.03 61 1014.4
20260905212848 33 142 1.6 1.6 0.00 0.03 0.03 58 1014.6
20260905212342 33 146 3.2 3.2 0.00 0.03 0.03 59 1014.6
20260905211842 33 189 3.2 4.8 0.00 0.03 0.03 58 1014.7
20260905211338 32 307 3.2 4.8 0.00 0.03 0.03 61 1014.8
20260905210834 32 94 3.2 4.8 0.00 0.03 0.03 61 1014.7
20260905210334 32 96 1.6 3.2 0.00 0.03 0.03 63 1014.8
20260905205833 32 124 0.0 1.6 0.00 0.03 0.03 63 1014.8
20260905205327 31 158 3.2 3.2 0.00 0.03 0.03 67 1014.7
20260905204827 31 67 1.6 3.2 0.00 0.03 0.03 66 1014.9
20260905204323 32 79 0.0 1.6 0.00 0.03 0.03 64 1014.9
20260905203821 31 291 4.8 4.8 0.00 0.03 0.03 65 1015.0
20260905203318 31 291 1.6 3.2 0.00 0.03 0.03 65 1014.9
20260905202813 32 202 3.2 3.2 0.00 0.03 0.03 64 1014.9
20260905202308 32 333 6.4 8.0 0.00 0.03 0.03 63 1014.9
20260905201803 32 146 3.2 3.2 0.00 0.03 0.03 63 1014.7
20260905201259 32 1 4.8 8.0 0.00 0.03 0.03 63 1014.8
20260905200753 33 256 4.8 8.0 0.00 0.03 0.03 61 1014.8
20260905200249 33 118 3.2 3.2 0.00 0.03 0.03 61 1015.0
20260905195747 33 150 1.6 1.6 0.00 0.03 0.03 59 1015.1
20260905195242 33 80 3.2 3.2 0.00 0.03 0.03 59 1015.6
20260905194738 33 138 1.6 1.6 0.00 0.03 0.03 60 1015.5
20260905194237 33 117 0.0 1.6 0.00 0.03 0.03 62 1015.5
20260905193731 33 144 3.2 3.2 0.00 0.03 0.03 61 1015.7
20260905193226 33 182 3.2 4.8 0.00 0.03 0.03 60 1015.9
20260905192721 33 151 1.6 3.2 0.00 0.03 0.03 59 1015.7
20260905192218 33 97 1.6 3.2 0.00 0.03 0.03 65 1015.7
20260905191717 32 130 1.6 1.6 0.00 0.03 0.03 64 1015.7
20260905191215 32 147 0.0 0.0 0.00 0.03 0.03 62 1016.0
20260905190714 33 147 3.2 3.2 0.00 0.03 0.03 62 1016.0
20260905190213 32 164 1.6 1.6 0.00 0.03 0.03 65 1016.1
20260905185712 33 185 1.6 3.2 0.00 0.03 0.03 64 1015.9
20260905185207 33 104 6.4 8.0 0.00 0.03 0.03 63 1015.9
20260905184701 32 195 1.6 4.8 0.00 0.03 0.03 64 1016.0
20260905184200 32 237 3.2 3.2 0.00 0.03 0.03 66 1016.2
20260905183700 32 174 6.4 8.0 0.00 0.03 0.03 68 1016.0
20260905183155 32 151 1.6 3.2 0.00 0.03 0.03 67 1016.5
20260905182655 31 111 1.6 1.6 0.00 0.03 0.03 65 1016.5
20260905182154 32 27 4.8 4.8 0.00 0.03 0.03 67 1016.6
20260905181650 31 160 3.2 3.2 0.00 0.03 0.03 71 1016.6
20260905181149 30 272 3.2 3.2 0.00 0.03 0.03 70 1016.8
20260905180643 31 301 4.8 8.0 0.00 0.03 0.03 70 1017.0
20260905180139 32 71 1.6 1.6 0.00 0.03 0.03 68 1016.7
20260905175638 31 143 0.0 0.0 0.00 0.03 0.03 70 1016.7
20260905175134 31 308 6.4 8.0 0.00 0.03 0.03 71 1016.9
20260905174629 31 223 4.8 4.8 0.00 0.03 0.03 73 1016.9
20260905174125 30 148 0.0 1.6 0.00 0.03 0.03 72 1016.9
20260905173621 31 167 3.2 4.8 0.00 0.03 0.03 71 1017.0
20260905173116 30 190 0.0 1.6 0.00 0.03 0.03 71 1016.9
20260905172615 30 117 4.8 4.8 0.00 0.03 0.03 72 1016.8
20260905172110 30 192 1.6 1.6 0.00 0.03 0.03 74 1016.9
20260905171606 30 156 1.6 1.6 0.00 0.03 0.03 75 1016.9
20260905171102 30 140 3.2 3.2 0.00 0.03 0.03 76 1017.1
20260905170558 29 125 1.6 3.2 0.00 0.03 0.03 81 1017.3
20260905170054 29 167 1.6 3.2 0.00 0.03 0.03 77 1017.2
20260905165548 29 102 4.8 4.8 0.00 0.03 0.03 80 1017.5
20260905165043 28 137 4.8 8.0 0.00 0.03 0.03 80 1017.6
20260905164544 28 132 0.0 1.6 0.00 0.03 0.03 80 1017.4
20260905164038 27 102 1.6 1.6 0.00 0.03 0.03 85 1017.4
20260905163534 27 118 1.6 1.6 0.00 0.03 0.03 92 1017.7
20260905163030 26 147 1.6 1.6 0.00 0.03 0.03 92 1017.6
20260905162527 25 136 1.6 3.2 0.00 0.03 0.03 94 1017.8
20260905162021 25 139 0.0 0.0 0.00 0.03 0.03 95 1017.8
20260905161520 25 139 0.0 0.0 0.00 0.03 0.03 95 1017.7
20260905161018 25 140 0.0 0.0 0.00 0.03 0.03 96 1017.6
20260905160511 25 138 0.0 0.0 0.00 0.03 0.03 95 1017.9
20260905160006 25 122 0.0 1.6 0.00 0.03 0.03 95 1018.0
20260905155506 25 153 0.0 1.6 0.18 0.03 0.03 92 1018.0
20260905155004 26 154 1.6 1.6 0.18 0.03 0.03 89 1018.0
20260905154500 27 183 1.6 1.6 0.00 0.00 0.00 84 1018.2
20260905153955 28 184 4.8 4.8 0.00 0.00 0.00 79 1017.9
20260905153452 29 106 4.8 9.7 0.00 0.00 0.00 77 1018.0
20260905152951 29 73 4.8 8.0 0.00 0.00 0.00 78 1017.9
20260905152451 30 179 1.6 3.2 0.00 0.00 0.00 76 1017.6
20260905151946 29 75 1.6 3.2 0.00 0.00 0.00 78 1017.5
20260905151441 28 128 0.0 0.0 0.00 0.00 0.00 80 1017.6
20260905150936 28 135 0.0 0.0 0.00 0.00 0.00 80 1017.5
20260905150437 28 141 0.0 1.6 0.00 0.00 0.00 81 1017.6
20260905145933 27 171 1.6 1.6 0.00 0.00 0.00 82 1017.5
20260905145433 27 187 1.6 1.6 0.00 0.00 0.00 83 1017.8
20260905144927 27 139 1.6 1.6 0.00 0.00 0.00 82 1017.8
20260905144423 27 157 0.0 1.6 0.00 0.00 0.00 82 1017.8
20260905143921 27 157 3.2 3.2 0.00 0.00 0.00 84 1017.5
20260905143415 27 179 1.6 1.6 0.00 0.00 0.00 84 1017.6
20260905142915 27 152 0.0 1.6 0.00 0.00 0.00 84 1017.5
20260905142414 26 199 4.8 4.8 0.00 0.00 0.00 84 1017.7
20260905141910 26 152 1.6 3.2 0.00 0.00 0.00 87 1017.4
20260905141404 26 168 1.6 3.2 0.00 0.00 0.00 87 1017.5
20260905140901 25 153 1.6 1.6 0.00 0.00 0.00 88 1017.6
20260905140355 25 176 3.2 3.2 0.00 0.00 0.00 89 1017.6
20260905135854 25 148 3.2 3.2 0.00 0.00 0.00 89 1017.7
20260905135350 25 149 1.6 3.2 0.00 0.00 0.00 88 1017.8
20260905134845 25 149 1.6 3.2 0.00 0.00 0.00 89 1017.7
20260905134344 24 200 4.8 4.8 0.00 0.00 0.00 91 1017.7
20260905133838 23 152 1.6 1.6 0.00 0.00 0.00 94 1017.6
20260905133334 23 164 3.2 3.2 0.00 0.00 0.00 93 1017.7
20260905132833 23 147 3.2 3.2 0.00 0.00 0.00 94 1018.0
20260905132329 23 169 3.2 3.2 0.00 0.00 0.00 94 1018.1
20260905131823 23 168 1.6 1.6 0.00 0.00 0.00 95 1018.0
20260905131319 22 156 1.6 1.6 0.00 0.00 0.00 96 1018.0
20260905130814 22 164 3.2 3.2 0.00 0.00 0.00 96 1017.8
20260905130312 22 165 3.2 3.2 0.00 0.00 0.00 96 1018.0
20260905125808 22 153 1.6 1.6 0.00 0.00 0.00 95 1018.2
20260905125305 22 162 1.6 1.6 0.00 0.00 0.00 96 1018.2
20260905124759 22 163 3.2 3.2 0.00 0.00 0.00 96 1018.1
20260905124254 22 160 1.6 3.2 0.00 0.00 0.00 97 1018.2
20260905123749 22 162 3.2 3.2 0.00 0.00 0.00 97 1018.1
20260905123247 22 165 3.2 3.2 0.00 0.00 0.00 97 1017.8
20260905122746 22 158 3.2 3.2 0.00 0.00 0.00 97 1017.8
20260905122240 21 163 3.2 3.2 0.00 0.00 0.00 98 1017.9
20260905121736 21 155 1.6 3.2 0.00 0.00 0.00 98 1017.9
20260905121232 21 160 3.2 3.2 0.00 0.00 0.00 98 1018.1
20260905120730 21 148 1.6 3.2 0.00 0.00 0.00 98 1017.9
20260905120225 21 158 1.6 3.2 0.00 0.00 0.00 99 1017.9
20260905115720 21 148 1.6 3.2 0.00 0.00 0.00 99 1017.6
20260905115220 21 150 1.6 1.6 0.00 0.00 0.00 99 1017.7
20260905114715 21 160 1.6 3.2 0.00 0.00 0.00 99 1017.5
20260905114213 21 156 3.2 3.2 0.00 0.00 0.00 98 1017.5
20260905113713 21 158 1.6 3.2 0.00 0.00 0.00 98 1017.5
20260905113209 21 164 3.2 3.2 0.00 0.00 0.00 99 1017.5
20260905112708 21 157 0.0 0.0 0.00 0.00 0.00 99 1017.6
20260905112204 21 163 1.6 1.6 0.00 0.00 0.00 99 1017.4
20260905111704 21 166 1.6 3.2 0.00 0.00 0.00 98 1017.3
20260905111203 21 163 1.6 1.6 0.00 0.00 0.00 98 1017.1
20260905110703 21 165 1.6 1.6 0.00 0.00 0.00 98 1017.1
20260905110157 21 166 1.6 3.2 0.00 0.00 0.00 98 1017.2
20260905105653 21 165 1.6 1.6 0.00 0.00 0.00 98 1016.9
20260905105151 21 161 1.6 3.2 0.00 0.00 0.00 97 1016.8
20260905104647 21 159 1.6 1.6 0.00 0.00 0.00 98 1016.6
20260905104142 21 154 1.6 1.6 0.00 0.00 0.00 98 1016.9
20260905103638 21 158 1.6 1.6 0.00 0.00 0.00 97 1017.0
20260905103133 21 153 1.6 1.6 0.00 0.00 0.00 98 1016.6
20260905102629 21 157 1.6 1.6 0.00 0.00 0.00 98 1016.6
20260905102126 21 158 0.0 0.0 0.00 0.00 0.00 99 1016.7
20260905101624 21 150 0.0 0.0 0.00 0.00 0.00 99 1016.6
20260905101122 21 158 0.0 0.0 0.00 0.00 0.00 99 1016.7
20260905100618 21 155 0.0 0.0 0.00 0.00 0.00 98 1016.6
20260905100114 21 157 0.0 0.0 0.00 0.00 0.00 98 1016.7
20260905095607 21 152 0.0 0.0 0.00 0.00 0.00 97 1016.6
20260905095102 21 156 0.0 0.0 0.00 0.00 0.00 97 1016.6
20260905094558 22 155 0.0 0.0 0.00 0.00 0.00 97 1016.5
20260905094057 22 158 1.6 1.6 0.00 0.00 0.00 96 1016.7
20260905093557 22 158 1.6 1.6 0.00 0.00 0.00 96 1016.7
20260905093054 22 157 1.6 1.6 0.00 0.00 0.00 96 1016.7
20260905092553 22 158 1.6 1.6 0.00 0.00 0.00 96 1016.6
20260905092049 22 156 1.6 1.6 0.00 0.00 0.00 96 1016.7
20260905091548 22 152 1.6 1.6 0.00 0.00 0.00 97 1016.6
20260905091043 22 159 1.6 1.6 0.00 0.00 0.00 96 1016.5
20260905090542 22 174 3.2 3.2 0.00 0.00 0.00 96 1016.4
20260905090038 22 160 3.2 3.2 0.00 0.00 0.00 96 1016.6
20260905085536 22 152 0.0 1.6 0.00 0.00 0.00 96 1016.4
20260905085033 21 162 4.8 4.8 0.00 0.00 0.00 97 1016.4
20260905084532 21 169 3.2 3.2 0.00 0.00 0.00 97 1016.5
20260905084027 21 160 1.6 1.6 0.00 0.00 0.00 97 1016.2
20260905083522 21 152 3.2 3.2 0.00 0.00 0.00 97 1016.5
20260905083019 21 168 1.6 1.6 0.00 0.00 0.00 97 1016.1
20260905082514 21 159 3.2 3.2 0.00 0.00 0.00 97 1016.6
20260905082009 21 169 3.2 3.2 0.00 0.00 0.00 97 1016.6
20260905081509 21 165 3.2 3.2 0.00 0.00 0.00 97 1016.5
20260905081003 21 165 3.2 3.2 0.00 0.00 0.00 97 1016.6
20260905080458 21 164 3.2 3.2 0.00 0.00 0.00 97 1016.4
20260905075956 21 159 1.6 1.6 0.00 0.00 0.00 96 1016.5
20260905075451 21 162 1.6 1.6 0.00 0.00 0.00 96 1016.5
20260905074950 21 165 1.6 1.6 0.00 0.00 0.00 96 1016.6
20260905074446 21 159 1.6 1.6 0.00 0.00 0.00 96 1016.8
20260905073941 22 154 1.6 1.6 0.00 0.00 0.00 96 1016.8
20260905073436 22 165 1.6 1.6 0.00 0.00 0.00 96 1016.9
20260905072932 22 181 1.6 3.2 0.00 0.00 0.00 96 1016.7
20260905072427 22 161 3.2 3.2 0.00 0.00 0.00 95 1016.9
20260905071923 22 156 1.6 3.2 0.00 0.00 0.00 95 1017.0
20260905071420 22 159 1.6 1.6 0.00 0.00 0.00 94 1017.1
20260905070918 22 160 0.0 0.0 0.00 0.00 0.00 95 1017.1
20260905070415 22 163 0.0 0.0 0.00 0.00 0.00 95 1016.9
20260905065914 22 158 0.0 0.0 0.00 0.00 0.00 96 1017.1
20260905065413 22 160 0.0 0.0 0.00 0.00 0.00 95 1017.3
20260905064908 22 159 0.0 0.0 0.00 0.00 0.00 96 1017.1
20260905064403 22 157 0.0 0.0 0.00 0.00 0.00 95 1017.2
20260905063902 22 152 0.0 0.0 0.00 0.00 0.00 95 1017.3
20260905063352 22 157 0.0 0.0 0.00 0.00 0.00 94 1017.3
20260905062848 22 152 0.0 0.0 0.00 0.00 0.00 94 1017.3
20260905062343 22 161 0.0 0.0 0.00 0.00 0.00 93 1017.5
20260905061837 22 159 0.0 0.0 0.00 0.00 0.00 92 1017.2
20260905061332 22 161 1.6 1.6 0.00 0.00 0.00 93 1017.7
20260905060826 22 158 1.6 1.6 0.00 0.00 0.00 92 1017.4
20260905060323 22 163 0.0 0.0 0.00 0.00 0.00 93 1017.6
20260905055822 22 155 0.0 0.0 0.00 0.00 0.00 93 1017.5
20260905055317 22 159 0.0 0.0 0.00 0.00 0.00 93 1017.7
20260905054817 22 156 0.0 0.0 0.00 0.00 0.00 93 1017.6
20260905054313 22 156 0.0 0.0 0.00 0.00 0.00 93 1017.7
20260905053812 22 156 0.0 0.0 0.00 0.00 0.00 93 1017.7
20260905053308 23 156 0.0 0.0 0.00 0.00 0.00 93 1017.8
20260905052802 23 156 0.0 0.0 0.00 0.00 0.00 92 1017.7
20260905052306 23 157 0.0 0.0 0.00 0.00 0.00 91 1017.7
20260905051802 23 152 0.0 0.0 0.00 0.00 0.00 91 1017.7
20260905051258 23 158 0.0 0.0 0.00 0.00 0.00 91 1017.7
20260905050755 23 149 0.0 0.0 0.00 0.00 0.00 90 1017.9
20260905050250 23 147 0.0 0.0 0.00 0.00 0.00 91 1017.8
20260905045745 23 147 0.0 0.0 0.00 0.00 0.00 91 1017.8
20260905045240 23 159 1.6 1.6 0.00 0.00 0.00 91 1017.8
20260905044736 23 158 1.6 1.6 0.00 0.00 0.00 90 1017.6
20260905044231 23 168 1.6 3.2 0.00 0.00 0.00 90 1017.8
20260905043730 23 155 1.6 3.2 0.00 0.00 0.00 90 1017.5
20260905043230 23 147 3.2 3.2 0.00 0.00 0.00 89 1017.5
20260905042725 23 177 1.6 1.6 0.00 0.00 0.00 89 1017.9
20260905042224 23 165 3.2 3.2 0.00 0.00 0.00 89 1017.8
20260905041720 23 167 1.6 1.6 0.00 0.00 0.00 89 1017.7
20260905041215 23 161 1.6 3.2 0.00 0.00 0.00 89 1017.6
20260905040710 23 159 1.6 1.6 0.00 0.00 0.00 89 1017.8